Fredericksburg, VA

11:10 AM EST on December 14, 2019 (GMT -0500)
Shannon

Weather History for KEZF - October, 2019

Change the Weather History Date:

Saturday, October 26, 2019

  Actual Average (WUND) Record (WUND)
Temperature  
Mean Temperature 61 °F -  
Max Temperature 69 °F - - (-1)
Min Temperature 53 °F - - (-1)
Degree Days  
Heating Degree Days 4    
Growing Degree Days 11 (Base 50)    
Moisture  
Dew Point 55 °F    
Average Humidity 83    
Maximum Humidity 100    
Minimum Humidity 54    
Precipitation  
Precipitation 0.00 in - - ()
Sea Level Pressure  
Sea Level Pressure 30.16 in    
Wind  
Wind Speed 2 mph ()    
Max Wind Speed 9 mph    
Max Gust Speed -    
Visibility 10.0 miles    
Events Rain    
Averages and records for this station are not official NWS values.
T = Trace of Precipitation, MM = Missing Value Source: Averaged Metar Reports

Daily Weather History Graph

Daily Weather History Graph

Search for Another Location

Airport or City:

Astronomy

Oct. 26, 2019 Rise Set
Actual Time 7:29 AM EDT 6:17 PM EDT
Civil Twilight 7:02 AM EDT 6:44 PM EDT
Nautical Twilight 6:31 AM EDT 7:15 PM EDT
Astronomical Twilight 6:00 AM EDT 7:46 PM EDT
Moon 5:25 AM EDT (10/26) 5:49 PM EDT (10/26)
Length of Visible Light 11h 42m
Length of Day
10h 48m
Waning Crescent, 3% of the Moon is Illuminated
Oct 26
Waning Crescent
Oct 27
New
Nov 4
First Quarter
Nov 12
Full
Nov 19
Last Quarter

Hourly Weather History & Observations

Time (EDT) Temp. Dew Point Humidity Pressure Visibility Wind Dir Wind Speed Gust Speed Precip Events Conditions
12:15 AM 56.3 °F 55.4 °F 97% 30.19 in 10.0 mi Calm Calm - N/A   Clear
12:35 AM 56.3 °F 55.4 °F 97% 30.19 in 10.0 mi Calm Calm - N/A   Scattered Clouds
12:55 AM 56.1 °F 55.4 °F 97% 30.18 in 10.0 mi Calm Calm - N/A   Scattered Clouds
1:15 AM 55.9 °F 55.6 °F 99% 30.18 in 10.0 mi Calm Calm - N/A   Clear
1:35 AM 55.9 °F 55.4 °F 98% 30.18 in 10.0 mi Calm Calm - N/A   Scattered Clouds
1:55 AM 55.9 °F 55.4 °F 98% 30.18 in 10.0 mi Calm Calm - N/A   Overcast
2:15 AM 55.2 °F 54.7 °F 98% 30.19 in 10.0 mi Calm Calm - N/A   Scattered Clouds
2:35 AM 54.7 °F 54.7 °F 100% 30.19 in 10.0 mi Calm Calm - N/A   Scattered Clouds
2:55 AM 54.5 °F 54.5 °F 100% 30.19 in 10.0 mi Calm Calm - N/A   Scattered Clouds
3:15 AM 54.5 °F 54.5 °F 100% 30.19 in 10.0 mi Calm Calm - N/A   Mostly Cloudy
3:35 AM 54.0 °F 54.0 °F 100% 30.18 in 10.0 mi Calm Calm - N/A   Mostly Cloudy
3:55 AM 54.0 °F 54.0 °F 100% 30.18 in 10.0 mi Calm Calm - N/A   Overcast
4:15 AM 54.5 °F 54.5 °F 100% 30.17 in 10.0 mi Calm Calm - N/A   Overcast
4:35 AM 54.1 °F 54.1 °F 100% 30.16 in 10.0 mi Calm Calm - N/A   Mostly Cloudy
4:55 AM 54.7 °F 54.5 °F 99% 30.17 in 10.0 mi Calm Calm - N/A   Mostly Cloudy
5:15 AM 54.5 °F 54.5 °F 100% 30.17 in 10.0 mi NNW 3.5 mph - N/A   Mostly Cloudy
5:35 AM 55.0 °F 55.0 °F 100% 30.18 in 10.0 mi Calm Calm - N/A   Mostly Cloudy
5:55 AM 55.0 °F 54.7 °F 99% 30.19 in 10.0 mi Calm Calm - N/A   Mostly Cloudy
6:15 AM 54.5 °F 54.5 °F 100% 30.18 in 10.0 mi Calm Calm - N/A   Scattered Clouds
6:35 AM 54.1 °F 54.1 °F 100% 30.19 in 10.0 mi Calm Calm - N/A   Clear
6:55 AM 54.3 °F 54.3 °F 100% 30.17 in 10.0 mi Calm Calm - N/A   Clear
7:15 AM 53.8 °F 53.8 °F 100% 30.18 in 10.0 mi Calm Calm - N/A   Clear
7:35 AM 53.2 °F 53.2 °F 100% 30.19 in 10.0 mi Calm Calm - N/A   Clear
7:55 AM 53.6 °F 53.6 °F 100% 30.19 in 10.0 mi Calm Calm - N/A   Mostly Cloudy
8:15 AM 54.5 °F 54.5 °F 100% 30.20 in 10.0 mi Calm Calm - N/A   Light Drizzle
8:35 AM 54.9 °F 54.9 °F 100% 30.20 in 10.0 mi Calm Calm - N/A Rain Light Rain
8:55 AM 56.3 °F 55.9 °F 99% 30.21 in 10.0 mi Calm Calm - N/A   Overcast
9:15 AM 56.8 °F 55.8 °F 96% 30.22 in 10.0 mi Calm Calm - N/A   Mostly Cloudy
9:35 AM 58.1 °F 56.3 °F 94% 30.21 in 10.0 mi Calm Calm - N/A   Overcast
9:55 AM 59.0 °F 56.3 °F 91% 30.22 in 10.0 mi Calm Calm - N/A   Overcast
10:15 AM 60.1 °F 56.3 °F 87% 30.21 in 10.0 mi Calm Calm - N/A   Overcast
10:35 AM 60.6 °F 56.1 °F 85% 30.22 in 10.0 mi Calm Calm - N/A   Overcast
10:55 AM 61.7 °F 56.3 °F 82% 30.22 in 10.0 mi Calm Calm - N/A   Mostly Cloudy
11:15 AM 63.0 °F 55.9 °F 78% 30.22 in 10.0 mi Calm Calm - N/A   Scattered Clouds
11:35 AM 64.6 °F 55.0 °F 71% 30.21 in 10.0 mi NNE 5.8 mph - N/A   Clear
11:55 AM 65.3 °F 53.8 °F 66% 30.21 in 10.0 mi NE 6.9 mph - N/A   Clear
12:15 PM 66.4 °F 53.8 °F 64% 30.20 in 10.0 mi ENE 8.1 mph - N/A   Clear
12:55 PM 66.7 °F 54.3 °F 64% 30.18 in 10.0 mi ENE 4.6 mph - N/A   Clear
1:15 PM 67.3 °F 55.8 °F 66% 30.18 in 10.0 mi NNE 5.8 mph - N/A   Clear
1:35 PM 67.6 °F 55.2 °F 64% 30.16 in 10.0 mi NNE 6.9 mph - N/A   Clear
1:55 PM 67.6 °F 55.2 °F 64% 30.17 in 10.0 mi NNE 3.5 mph - N/A   Mostly Cloudy
2:15 PM 68.4 °F 55.0 °F 62% 30.16 in 10.0 mi ENE 3.5 mph - N/A   Mostly Cloudy
2:35 PM 68.9 °F 52.7 °F 56% 30.15 in 10.0 mi East 5.8 mph - N/A   Mostly Cloudy
2:55 PM 68.4 °F 51.3 °F 54% 30.15 in 10.0 mi ENE 8.1 mph - N/A   Mostly Cloudy
3:15 PM 69.1 °F 51.8 °F 54% 30.14 in 10.0 mi ESE 6.9 mph - N/A   Overcast
3:55 PM 69.1 °F 52.9 °F 56% 30.13 in 10.0 mi East 8.1 mph - N/A   Scattered Clouds
4:15 PM 69.1 °F 52.7 °F 56% 30.13 in 10.0 mi ENE 6.9 mph - N/A   Clear
4:35 PM 68.2 °F 52.7 °F 58% 30.12 in 10.0 mi East 5.8 mph - N/A   Clear
4:55 PM 67.6 °F 52.9 °F 59% 30.13 in 10.0 mi East 5.8 mph - N/A   Clear
5:15 PM 67.1 °F 53.4 °F 61% 30.12 in 10.0 mi East 4.6 mph - N/A   Clear
5:35 PM 66.2 °F 53.8 °F 64% 30.11 in 10.0 mi ENE 6.9 mph - N/A   Clear
5:55 PM 65.5 °F 53.6 °F 65% 30.12 in 10.0 mi East 3.5 mph - N/A   Clear
6:15 PM 64.8 °F 54.0 °F 68% 30.12 in 10.0 mi East 5.8 mph - N/A   Clear
6:35 PM 64.0 °F 54.1 °F 70% 30.12 in 10.0 mi East 5.8 mph - N/A   Scattered Clouds
6:55 PM 63.7 °F 54.1 °F 71% 30.12 in 10.0 mi East 5.8 mph - N/A   Mostly Cloudy
7:15 PM 63.5 °F 54.7 °F 73% 30.13 in 10.0 mi East 5.8 mph - N/A   Scattered Clouds
7:35 PM 63.1 °F 55.4 °F 76% 30.12 in 10.0 mi East 5.8 mph - N/A   Mostly Cloudy
7:55 PM 63.0 °F 55.4 °F 76% 30.13 in 10.0 mi ESE 5.8 mph - N/A   Scattered Clouds
8:15 PM 63.0 °F 55.6 °F 77% 30.12 in 10.0 mi ESE 5.8 mph - N/A   Clear
8:35 PM 62.8 °F 55.8 °F 78% 30.11 in 10.0 mi East 6.9 mph - N/A   Clear
8:55 PM 62.6 °F 55.9 °F 79% 30.12 in 10.0 mi ESE 4.6 mph - N/A   Clear
9:15 PM 62.6 °F 56.3 °F 80% 30.12 in 10.0 mi East 5.8 mph - N/A   Scattered Clouds
9:35 PM 62.4 °F 56.5 °F 81% 30.11 in 10.0 mi East 5.8 mph - N/A   Mostly Cloudy
9:55 PM 62.1 °F 57.0 °F 84% 30.11 in 10.0 mi East 8.1 mph - N/A   Scattered Clouds
10:15 PM 62.1 °F 57.4 °F 85% 30.11 in 10.0 mi East 6.9 mph - N/A   Mostly Cloudy
10:35 PM 62.1 °F 57.7 °F 86% 30.10 in 10.0 mi East 5.8 mph - N/A   Overcast
10:55 PM 62.1 °F 58.1 °F 87% 30.09 in 10.0 mi East 4.6 mph - N/A   Overcast
11:15 PM 62.1 °F 58.5 °F 88% 30.09 in 10.0 mi East 6.9 mph - N/A   Overcast
11:35 PM 62.2 °F 59.0 °F 89% 30.08 in 10.0 mi East 9.2 mph - N/A   Overcast
11:55 PM 62.2 °F 59.4 °F 90% 30.07 in 10.0 mi ESE 6.9 mph - N/A   Overcast